Location: G�ppingen
(48.7089°N, 9.6563°E)
Time: 22:25:34
(UTC+02:00)

Envisat - Visible Passes

Search period start: 20 July 2018 00:00
Search period end: 30 July 2018 00:00
Orbit: 764 x 766 km, 98.2° (Epoch: 20 July)

Date Brightness Start Highest point End Pass type
(mag) Time Alt. Az. Time Alt. Az. Time Alt. Az.
20 Jul 6.0 22:12:58 10° WSW 22:14:33 11° W 22:16:08 10° WNW visible
23 Jul 5.7 22:00:30 10° WSW 22:03:12 14° W 22:05:55 10° NW visible
26 Jul 5.6 21:48:31 10° SW 21:51:54 18° W 21:55:18 10° NW visible
28 Jul 6.2 22:17:13 10° W 22:17:51 10° W 22:18:29 10° WNW visible
29 Jul 5.5 21:36:43 10° SW 21:40:36 22° W 21:44:30 10° NW visible
